KYOKKO 1 DEB

Satellite information

Favourite Embed

Satellite Type and Status

DEBRISIN ORBIT

Key statistics

Satellite KYOKKO 1 DEB at a glance.

Uptime

17482

Days in orbit

Revolutions

≈ 10.9

Per day

Orbit

HEO

HEO

Inclination

65.9

Latest

Satellite identification and parameters

Extended collection of information and parameters for KYOKKO 1 DEB.

Object identification

Identified? True

Debris? True

Object name: KYOKKO 1 DEB

International designator: 1978-014F

Object number (NORAD): 12406

Object ID (CCSDS): 12406

Country: JAPAN (JPN)

Current information (Y/N): Y

RCS size: SMALL

Orbital parameters

Period: 131.819 minutes

Inclination: 65.8853 deg

SMA: 8579.849 km

Apoapsis: 3763.285 km

Periapsis: 640.144 km

RAAN: 320.8048 deg

Eccentricy: 0.1820044

Argument of periapsis: 334.5692 deg

Mean anomaly: 17.5505 deg

Mean motion: 10.92403962 rev/day

Mean motion (dot): 0.00002077 rev/day2

B* drag term: 0.0024893 1/REarth

Two-line elements (TLE)

Creation date: Dec. 1, 2025, 3:36 p.m.

Reference frame: TEME

Reference center: EARTH

Epoch: Dec. 1, 2025, 5:12 a.m. UTC

TLE line 0: 0 KYOKKO 1 DEB

TLE line 1: 1 12406U 78014F 25335.21702315 .00002077 00000-0 24893-2 0 9996

TLE line 2: 2 12406 65.8853 320.8048 1820044 334.5692 17.5505 10.92403962877973

Live tracking on map

Real-time ground track for satellite KYOKKO 1 DEB.

In-orbit conjunctions

A list of the most updated potential collisions computed for object KYOKKO 1 DEB.

Target Orbit TCA Probability of collision Miss distance Type
CZ-4B DEB LEO 2024-07-30 15:52:36 0.0001688078 191.0 (m) DEBRIS

Associated space launch

Japanese magnetospheric research satellite

KYOKKO 1 DEB was lifted into orbit during the mission ‘Mu-3H | Kyokko’, on board a Mu-3H space rocket.

The launch took place on Feb. 4, 1978, 7 a.m. from Mu Center.

For more information about the launch, click the button.

Launch to space Mu-3H | Kyokko
Mu-3H | Kyokko

Agency: N/A

Status: Launch Successful

Launch date: Feb. 4, 1978, 7 a.m. UTC

Rocket: Mu-3H

Launch pad: Mu Center

Location: Uchinoura Space Center, Japan

...

Latest news about this satellite

There are no fresh news available about this satellite. Check back as we update our databases every day.


Newsletter sign-up

Weekly statistics, charts and insights to help you stay on top of the space industry.